Date String (YYYY-MM-DD hh:mm:ss) UTC,Instrument flags,Ambient pressure (hPa),Sample flow (lpm),Bypass flow (lpm),Sample temperature (°C),Ambient temperature (°C),ASC tube jacket temperature (°C),LED temperature (°C),Box temperature (°C),Sample RH (%),Span deviation,Mass concentration (μg/m³),Mass concentration (μg/m³),Mass concentration (μg/m³)
DateTimeUTC,F1_M11,P_M11,Q1_M11,Q2_M11,T1_M11,T2_M11,T3_M11,T4_M11,T5_M11,U1_M11,ZSPAN_M11,X0_M11,X2_M11,X1_M11
2023-02-21 08:00:00,,0814.4,5.00,0.00,21.9,20.1,00.0,31.0,23.5,13.3,0000.0,0001.91,0000.89,0000.52
2023-02-21 08:01:00,,0814.5,5.00,0.00,21.9,20.1,00.0,30.9,23.5,13.4,0000.0,0001.78,0000.86,0000.52
2023-02-21 08:02:00,,0814.5,5.02,0.00,21.9,20.6,00.0,30.9,23.6,13.4,0000.0,0001.85,0000.90,0000.52
2023-02-21 08:03:00,,0814.5,5.02,0.00,22.0,21.8,00.0,30.8,23.9,13.2,0000.0,0001.66,0000.85,0000.52
2023-02-21 08:04:00,,0814.4,5.02,0.00,22.2,22.9,00.0,30.8,24.3,13.1,0000.0,0001.71,0000.86,0000.53
2023-02-21 08:05:00,,0814.4,5.00,0.00,22.3,22.7,00.0,30.9,24.3,13.1,0000.0,0001.71,0000.89,0000.55
2023-02-21 08:06:00,,0814.5,5.01,0.00,22.3,22.2,00.0,31.0,24.2,13.0,0000.0,0001.52,0000.87,0000.55
2023-02-21 08:07:00,,0814.4,5.02,0.00,22.3,21.7,00.0,31.0,24.1,13.1,0000.0,0001.48,0000.85,0000.55
2023-02-21 08:08:00,,0814.5,4.99,0.00,22.2,21.4,00.0,31.0,24.0,13.1,0000.0,0001.46,0000.83,0000.55
2023-02-21 08:09:00,,0814.8,5.01,0.00,22.2,21.1,00.0,31.0,23.9,13.2,0000.0,0001.54,0000.84,0000.54
2023-02-21 08:10:00,,0814.8,4.99,0.00,22.2,20.8,00.0,31.1,23.8,13.4,0000.0,0001.57,0000.87,0000.57
2023-02-21 08:11:00,,0814.5,5.01,0.00,22.1,20.6,00.0,31.1,23.8,13.6,0000.0,0001.73,0000.96,0000.63
2023-02-21 08:12:00,,0814.5,5.00,0.00,22.1,20.5,00.0,31.1,23.7,14.6,0000.0,0002.00,0001.17,0000.81
2023-02-21 08:13:00,,0814.5,5.01,0.00,22.1,20.3,00.0,31.0,23.7,14.9,0000.0,0002.34,0001.46,0001.11
2023-02-21 08:14:00,,0814.9,5.00,0.00,22.0,20.3,00.0,31.0,23.7,15.1,0000.0,0002.73,0001.79,0001.40
2023-02-21 08:15:00,,0814.4,5.00,0.00,22.0,20.2,00.0,31.0,23.6,15.1,0000.0,0003.35,0002.14,0001.70
2023-02-21 08:16:00,,0814.6,5.00,0.00,22.0,20.1,00.0,31.0,23.6,15.2,0000.0,0003.89,0002.48,0002.00
2023-02-21 08:17:00,,0815.1,5.01,0.00,21.9,20.0,00.0,31.0,23.5,15.3,0000.0,0004.40,0002.85,0002.34
2023-02-21 08:18:00,,0814.9,4.99,0.00,21.9,20.0,00.0,31.0,23.5,15.3,0000.0,0004.91,0003.17,0002.67
2023-02-21 08:19:00,,0814.7,4.99,0.00,21.9,20.0,00.0,31.0,23.6,15.1,0000.0,0005.34,0003.35,0002.96
2023-02-21 08:20:00,,0814.4,4.99,0.00,21.9,20.0,00.0,30.9,23.6,14.9,0000.0,0005.91,0003.52,0003.18
2023-02-21 08:21:00,,0814.4,4.99,0.00,21.9,20.0,00.0,30.9,23.5,14.2,0000.0,0006.22,0003.60,0003.24
2023-02-21 08:22:00,,0814.3,5.00,0.00,21.9,20.8,00.0,30.8,23.7,14.0,0000.0,0006.29,0003.63,0003.26
2023-02-21 08:23:00,,0814.3,4.97,0.00,22.0,22.2,00.0,30.8,24.0,13.7,0000.0,0006.33,0003.58,0003.20
2023-02-21 08:24:00,,0814.3,5.05,0.00,22.2,23.1,00.0,30.8,24.3,13.5,0000.0,0006.02,0003.44,0003.04
2023-02-21 08:25:00,,0814.5,5.01,0.00,22.3,22.7,00.0,30.9,24.3,13.5,0000.0,0005.83,0003.30,0002.82
2023-02-21 08:26:00,,0814.2,5.00,0.00,22.3,22.2,00.0,31.0,24.2,13.3,0000.0,0005.38,0003.15,0002.56
2023-02-21 08:27:00,,0814.2,4.99,0.00,22.3,21.8,00.0,31.0,24.2,13.5,0000.0,0005.02,0002.97,0002.34
2023-02-21 08:28:00,,0814.0,5.01,0.00,22.3,21.5,00.0,31.0,24.1,13.5,0000.0,0004.73,0002.71,0002.10
2023-02-21 08:29:00,,0814.1,5.00,0.00,22.3,21.3,00.0,31.1,24.1,13.5,0000.0,0004.36,0002.42,0001.85
2023-02-21 08:30:00,,0813.9,5.01,0.00,22.3,21.1,00.0,31.1,24.1,13.5,0000.0,0004.19,0002.25,0001.67
2023-02-21 08:31:00,,0814.1,5.00,0.00,22.3,21.0,00.0,31.1,24.1,13.5,0000.0,0003.67,0002.01,0001.46
2023-02-21 08:32:00,,0814.0,5.00,0.00,22.3,20.9,00.0,31.1,24.0,13.5,0000.0,0003.51,0001.94,0001.37
2023-02-21 08:33:00,,0814.0,4.99,0.00,22.3,20.9,00.0,31.1,24.1,13.5,0000.0,0003.44,0001.93,0001.36
2023-02-21 08:34:00,,0814.1,5.00,0.00,22.3,20.8,00.0,31.1,24.0,13.5,0000.0,0003.27,0001.89,0001.36
2023-02-21 08:35:00,,0814.2,4.99,0.00,22.2,20.7,00.0,31.1,24.0,13.3,0000.0,0003.22,0001.91,0001.38
2023-02-21 08:36:00,,0814.2,4.99,0.00,22.2,20.5,00.0,31.1,23.9,13.4,0000.0,0003.25,0001.96,0001.40
2023-02-21 08:37:00,,0814.4,5.00,0.00,22.1,20.4,00.0,31.1,23.8,13.4,0000.0,0003.28,0001.99,0001.42
2023-02-21 08:38:00,,0814.1,5.01,0.00,22.1,20.2,00.0,31.1,23.7,13.5,0000.0,0003.18,0001.95,0001.40
2023-02-21 08:39:00,,0814.0,5.01,0.00,22.1,20.1,00.0,31.1,23.7,13.6,0000.0,0003.40,0001.89,0001.35
2023-02-21 08:40:00,,0814.1,4.98,0.00,22.0,20.0,00.0,31.1,23.6,13.7,0000.0,0003.36,0001.90,0001.33
2023-02-21 08:41:00,,0814.0,5.00,0.00,22.0,20.0,00.0,31.0,23.6,13.7,0000.0,0003.29,0001.88,0001.31
2023-02-21 08:42:00,,0814.0,5.00,0.00,22.0,20.0,00.0,31.0,23.6,13.7,0000.0,0003.30,0001.86,0001.28
2023-02-21 08:43:00,,0814.0,5.01,0.00,22.0,20.1,00.0,31.0,23.6,13.8,0000.0,0003.18,0001.78,0001.26
2023-02-21 08:44:00,,0814.0,5.00,0.00,21.9,20.1,00.0,31.0,23.7,13.7,0000.0,0003.04,0001.71,0001.23
2023-02-21 08:45:00,,0814.1,4.99,0.00,21.9,20.2,00.0,31.0,23.7,13.7,0000.0,0002.99,0001.66,0001.19
2023-02-21 08:46:00,,0814.0,5.01,0.00,21.9,20.2,00.0,31.0,23.7,13.7,0000.0,0002.95,0001.61,0001.16
2023-02-21 08:47:00,,0814.0,5.00,0.00,21.9,20.3,00.0,30.9,23.7,13.6,0000.0,0003.07,0001.59,0001.14
2023-02-21 08:48:00,,0814.0,5.00,0.00,21.9,20.3,00.0,30.9,23.7,13.6,0000.0,0003.03,0001.55,0001.10
2023-02-21 08:49:00,,0814.0,5.01,0.00,21.9,20.3,00.0,30.9,23.7,13.5,0000.0,0003.00,0001.52,0001.08
2023-02-21 08:50:00,,0814.0,5.00,0.00,21.9,20.3,00.0,30.9,23.7,13.5,0000.0,0002.68,0001.49,0001.06
2023-02-21 08:51:00,,0814.0,4.99,0.00,21.9,20.3,00.0,30.9,23.7,13.5,0000.0,0002.59,0001.45,0001.02
2023-02-21 08:52:00,,0814.0,5.00,0.00,21.9,20.3,00.0,30.9,23.7,13.9,0000.0,0002.60,0001.46,0001.04
2023-02-21 08:53:00,,0814.2,5.01,0.00,21.9,20.3,00.0,30.9,23.7,14.3,0000.0,0002.69,0001.57,0001.16
2023-02-21 08:54:00,,0814.4,5.00,0.00,21.9,20.3,00.0,30.9,23.7,14.4,0000.0,0002.92,0001.72,0001.28
2023-02-21 08:55:00,,0814.4,5.01,0.00,21.9,20.3,00.0,30.9,23.7,14.4,0000.0,0003.10,0001.85,0001.39
2023-02-21 08:56:00,,0814.1,5.00,0.00,22.0,20.8,00.0,30.8,23.8,14.4,0000.0,0003.46,0002.05,0001.52
2023-02-21 08:57:00,,0814.4,4.98,0.00,22.1,22.0,00.0,30.7,24.1,14.6,0000.0,0003.80,0002.28,0001.70
2023-02-21 08:58:00,,0814.3,5.01,0.00,22.2,23.1,00.0,30.8,24.4,14.7,0000.0,0004.04,0002.54,0001.92
2023-02-21 08:59:00,,0814.0,5.01,0.00,22.3,22.8,00.0,30.9,24.3,14.4,0000.0,0004.19,0002.74,0002.12
